Vorticity
10 11 8 19 -6 11 -6 5 4 5 -0 25 20 -9 15 7 -2 26 2 2 5 4 4 2 5 5 5 5 2 5 5 4 5 6 6 5 4 3 3 5 5 4 5 4 4 4 5 5 7
5 -4 9 10 13 -1 3 9 3 10 14 1 -0 0 -3 3 40 4 7 3 3 0 1 1 2 3 5 8 7 3 4 4 5 6 5 4 4 4 4 4 4 4 4 4 4 5 5 6 6
1 7 16 8 9 5 9 9 7 7 -3 -1 -1 -2 16 32 -1 3 5 7 4 4 5 6 7 6 6 7 6 5 4 5 5 5 6 5 5 4 4 4 4 4 4 5 5 5 5 7 6
6 1 -3 19 8 9 14 7 8 4 4 1 10 36 14 -1 3 4 3 6 5 4 4 4 6 7 6 6 5 5 6 6 5 4 4 4 3 3 3 3 4 4 4 4 5 5 6 5 6
5 8 4 8 11 13 9 8 7 1 9 5 18 5 8 5 6 5 4 6 5 3 2 4 5 5 5 5 4 5 4 4 3 3 3 3 3 3 4 3 4 4 5 6 7 7 7 7 7
-6 4 7 10 10 7 7 7 4 8 5 8 19 7 4 5 5 4 3 4 5 4 2 3 4 6 6 5 4 3 3 3 3 3 3 3 3 3 3 5 5 6 7 6 5 8 7 7 7
-2 3 2 3 8 7 7 4 6 9 10 11 4 9 6 4 4 3 3 3 5 5 4 3 3 4 6 5 3 3 3 2 3 3 2 3 4 7 6 16 6 6 5 8 6 6 8 9 7
-5 3 3 5 5 12 14 4 9 7 7 12 1 5 4 4 4 3 3 4 5 7 6 5 3 4 4 5 5 4 4 3 3 3 3 3 1 1 4 7 3 5 6 4 6 6 6 7 5
1 5 5 3 3 15 8 4 8 9 10 13 3 15 3 6 5 4 4 5 5 6 6 4 4 4 5 5 5 5 5 4 3 3 3 3 4 3 3 4 9 6 5 9 5 4 6 6 4
-8 8 9 8 4 10 9 2 9 6 8 9 5 12 4 5 7 6 5 7 5 5 5 5 5 5 4 4 4 4 4 4 4 4 5 5 3 3 4 5 4 5 7 5 6 7 7 3 1
14 -0 5 13 12 8 8 2 8 15 7 6 4 17 7 6 7 7 7 6 7 6 5 5 4 4 4 4 4 4 4 5 4 4 3 3 4 5 5 5 6 5 5 4 6 6 3 1 0
-2 2 1 18 4 8 3 9 3 7 16 5 10 12 7 5 5 5 5 4 5 6 5 5 5 5 4 4 5 5 5 5 5 4 4 5 4 5 6 5 6 4 6 5 4 4 5 3 4
-2 2 -3 10 9 7 8 4 0 8 7 11 11 8 10 8 5 5 4 4 4 4 4 4 4 4 4 5 5 5 5 4 4 5 5 6 7 7 9 11 9 7 4 6 5 4 4 5 5
1 6 -0 29 9 9 4 7 5 -1 6 11 10 9 7 7 5 3 3 4 5 5 4 4 4 5 5 4 4 7 7 7 7 9 7 7 7 7 7 6 6 7 7 7 6 6 6 6 5
1 1 19 16 8 6 10 2 3 -1 3 8 10 7 7 9 6 4 7 7 5 5 5 6 5 6 5 5 6 1 9 7 5 8 5 3 4 4 4 7 4 6 9 3 6 4 2 3 5
4 7 2 8 5 3 -3 15 12 1 8 2 7 4 5 5 9 10 7 5 7 5 8 7 7 7 5 9 6 7 3 7 6 5 3 6 6 4 4 3 9 6 6 8 5 4 -1 7 9
12 6 4 12 5 16 -0 10 20 9 2 6 6 5 4 4 4 8 7 5 8 6 6 7 8 13 7 5 7 8 5 6 4 5 6 5 5 5 4 6 5 6 3 10 5 -2 16 11 8
3 -1 18 -0 13 3 7 -17 13 10 9 6 7 4 4 4 5 7 5 3 2 3 4 3 6 6 9 5 9 9 8 7 4 5 7 7 6 6 7 5 6 8 4 7 3 10 9 9 8
4 7 6 4 12 5 2 6 -6 12 7 9 9 7 3 6 5 5 6 7 5 3 2 7 6 7 7 8 7 6 8 7 8 10 9 6 8 8 8 7 7 4 -0 9 11 8 9 9 10
-3 9 4 9 7 4 9 8 7 2 8 14 9 11 7 4 4 3 2 3 3 3 4 5 7 6 11 9 5 7 10 11 11 12 13 14 16 14 12 16 16 11 17 12 9 9 9 13 16
1 7 8 -10 6 2 5 9 11 11 9 4 17 11 12 9 6 5 5 3 3 4 4 5 10 11 11 8 9 11 9 9 12 15 17 18 20 19 19 16 17 15 11 10 10 11 11 10 11
4 3 6 8 -1 1 5 8 12 18 6 5 7 15 11 9 16 11 12 12 10 6 7 12 13 11 11 10 11 8 8 10 11 13 15 14 13 12 11 9 9 8 9 11 11 9 9 9 8
7 3 6 10 2 -5 8 1 17 12 4 9 8 8 12 8 7 14 15 19 22 21 17 17 13 11 10 9 7 7 7 6 4 3 0 -1 -0 -1 -1 4 5 6 5 5 10 12 10 10 10
11 -1 12 11 11 18 -1 -12 21 -5 12 10 15 11 3 6 7 6 10 13 12 12 15 12 8 8 6 7 5 6 5 4 3 1 3 5 3 -1 5 -2 1 1 4 6 6 8 13 12 12
8 6 9 12 26 -2 23 -4 -17 15 18 5 11 19 14 8 9 3 6 5 5 6 13 5 6 4 8 5 5 3 6 2 3 2 4 3 2 0 1 1 1 1 4 3 6 6 8 11 11
4 -3 -35 11 13 25 -10 15 17 10 4 2 4 11 17 8 16 16 9 5 7 7 8 6 4 5 7 7 8 -0 4 7 10 2 1 1 0 -0 0 -0 2 3 2 4 3 5 6 8 12
8 9 -1 -16 16 2 9 10 6 3 -2 7 15 14 14 2 3 12 21 17 6 7 9 11 9 6 8 5 2 5 2 8 -1 6 3 1 -1 -1 -0 1 2 3 3 4 6 4 7 8 10
6 4 3 7 7 2 21 4 -7 27 17 15 5 15 8 14 11 16 7 14 19 1 4 16 6 9 7 6 2 -2 -5 -0 5 1 3 3 1 -2 11 4 4 4 3 4 6 7 6 8 8
14 2 19 -2 -0 -17 5 30 5 2 -2 2 3 11 2 -4 8 7 20 12 19 13 -2 4 16 11 4 7 7 8 7 5 3 -5 -1 -10 11 -1 7 6 -5 4 1 3 6 9 5 5 8
9 16 8 -21 25 27 -27 7 18 6 4 14 11 12 5 16 -3 1 33 17 11 18 11 3 9 0 -4 -4 0 2 3 6 11 4 2 -24 9 13 0 -17 25 18 0 2 11 6 2 7 8
Height
3173 3172 3171 3171 3176 3176 3175 3179 3179 3179 3180 3178 3177 3178 3179 3178 3180 3186 3184 3185 3186 3187 3188 3190 3192 3194 3195 3198 3200 3202 3204 3205 3207 3208 3210 3212 3213 3215 3216 3217 3217 3218 3218 3218 3218 3216 3216 3214 3213
3174 3175 3174 3173 3175 3172 3177 3180 3181 3181 3180 3180 3181 3182 3183 3182 3183 3183 3186 3188 3190 3191 3193 3195 3196 3198 3200 3201 3202 3204 3206 3208 3210 3211 3213 3214 3215 3217 3218 3219 3219 3220 3219 3219 3218 3217 3216 3216 3214
3175 3175 3178 3179 3175 3175 3178 3181 3182 3182 3182 3184 3183 3183 3183 3184 3187 3187 3190 3191 3193 3195 3196 3198 3200 3201 3203 3205 3206 3207 3209 3211 3212 3213 3214 3216 3218 3219 3220 3221 3221 3221 3221 3220 3220 3218 3217 3216 3216
3178 3179 3181 3181 3180 3182 3182 3183 3183 3184 3184 3184 3183 3183 3184 3187 3189 3191 3192 3194 3196 3197 3199 3201 3202 3204 3206 3207 3209 3211 3213 3214 3214 3215 3217 3219 3220 3221 3221 3222 3222 3222 3221 3221 3220 3220 3218 3218 3217
3180 3181 3182 3182 3183 3183 3184 3184 3186 3187 3186 3185 3186 3186 3187 3189 3191 3194 3195 3197 3198 3200 3202 3203 3205 3207 3209 3210 3212 3214 3215 3216 3217 3218 3220 3221 3221 3222 3222 3223 3222 3222 3222 3221 3221 3220 3218 3218 3218
3183 3181 3182 3182 3185 3185 3186 3185 3187 3188 3186 3187 3188 3189 3189 3191 3194 3195 3197 3199 3200 3202 3204 3205 3207 3209 3211 3213 3214 3215 3216 3217 3219 3221 3221 3223 3223 3224 3224 3223 3223 3223 3222 3221 3221 3221 3220 3219 3219
3182 3183 3184 3184 3186 3187 3187 3187 3189 3188 3188 3190 3190 3191 3192 3194 3195 3197 3198 3200 3202 3204 3206 3208 3209 3211 3212 3214 3215 3217 3218 3220 3221 3222 3222 3223 3224 3225 3224 3224 3224 3223 3223 3222 3221 3220 3220 3219 3219
3182 3185 3184 3184 3185 3187 3186 3188 3188 3189 3190 3189 3191 3193 3193 3195 3197 3199 3200 3202 3204 3206 3208 3210 3211 3213 3214 3215 3217 3218 3220 3221 3222 3222 3223 3224 3225 3225 3224 3224 3224 3224 3223 3222 3222 3222 3221 3220 3219
3183 3185 3183 3186 3186 3187 3186 3188 3187 3188 3188 3190 3192 3194 3196 3196 3198 3200 3202 3204 3205 3207 3210 3211 3213 3214 3216 3217 3218 3220 3221 3222 3223 3223 3224 3225 3226 3225 3225 3225 3225 3224 3224 3223 3223 3223 3222 3221 3220
3184 3183 3184 3185 3186 3188 3187 3190 3188 3189 3189 3191 3193 3194 3196 3198 3200 3202 3204 3206 3207 3209 3210 3212 3214 3215 3216 3217 3219 3220 3222 3223 3223 3224 3225 3225 3225 3225 3225 3225 3225 3225 3224 3223 3223 3222 3222 3222 3221
3184 3183 3185 3185 3186 3187 3188 3189 3189 3191 3192 3193 3193 3194 3196 3199 3201 3203 3206 3207 3209 3210 3212 3213 3214 3215 3216 3218 3219 3221 3222 3223 3223 3224 3225 3225 3225 3224 3224 3224 3225 3224 3224 3223 3223 3222 3221 3221 3221
3183 3184 3185 3185 3185 3188 3189 3190 3190 3191 3194 3193 3193 3195 3197 3199 3201 3203 3206 3208 3210 3211 3212 3213 3214 3216 3217 3218 3219 3220 3222 3222 3223 3223 3224 3224 3223 3223 3224 3224 3223 3224 3223 3223 3223 3221 3220 3220 3219
3181 3183 3183 3184 3184 3187 3189 3189 3191 3191 3191 3192 3193 3195 3198 3200 3202 3204 3206 3207 3209 3211 3212 3213 3214 3215 3216 3217 3219 3220 3220 3221 3222 3222 3222 3222 3222 3222 3223 3223 3222 3222 3222 3222 3221 3220 3218 3217 3217
3181 3181 3181 3181 3183 3185 3188 3189 3189 3190 3191 3192 3193 3195 3197 3199 3201 3202 3204 3206 3208 3210 3211 3212 3213 3214 3216 3217 3218 3218 3219 3219 3220 3220 3220 3220 3221 3222 3222 3222 3221 3221 3220 3220 3219 3219 3218 3216 3215
3178 3180 3179 3179 3181 3184 3187 3188 3187 3188 3190 3191 3192 3194 3196 3198 3200 3202 3205 3206 3207 3208 3209 3211 3212 3213 3214 3215 3216 3217 3218 3218 3218 3219 3219 3219 3220 3221 3221 3220 3220 3219 3219 3218 3217 3216 3215 3214 3212
3176 3178 3178 3178 3179 3181 3185 3184 3186 3186 3188 3190 3191 3193 3194 3196 3198 3200 3202 3203 3204 3206 3208 3208 3210 3211 3212 3213 3214 3215 3216 3217 3217 3217 3217 3218 3218 3218 3218 3218 3218 3218 3217 3216 3215 3214 3212 3210 3208
3172 3170 3172 3175 3177 3178 3183 3184 3184 3183 3186 3188 3189 3191 3192 3194 3196 3198 3199 3200 3202 3203 3205 3206 3207 3209 3210 3211 3212 3213 3215 3216 3215 3216 3215 3216 3216 3216 3216 3216 3215 3215 3215 3214 3213 3212 3209 3208 3205
3164 3166 3167 3172 3174 3176 3180 3183 3183 3182 3184 3186 3187 3188 3189 3191 3194 3195 3197 3198 3199 3201 3202 3203 3205 3206 3207 3208 3210 3212 3213 3214 3214 3214 3214 3212 3213 3213 3213 3212 3212 3212 3212 3211 3210 3208 3206 3205 3202
3162 3164 3165 3169 3172 3174 3177 3179 3181 3180 3182 3184 3185 3184 3186 3188 3191 3192 3194 3195 3197 3198 3200 3201 3202 3203 3205 3206 3208 3209 3211 3211 3211 3211 3210 3210 3210 3209 3209 3209 3209 3209 3209 3208 3205 3204 3203 3202 3200
3159 3161 3162 3166 3169 3172 3174 3175 3177 3178 3177 3179 3181 3181 3182 3184 3186 3187 3189 3191 3193 3195 3197 3198 3200 3200 3202 3203 3205 3206 3207 3208 3208 3208 3208 3207 3207 3206 3206 3207 3207 3208 3206 3205 3203 3201 3199 3199 3198
3155 3156 3158 3161 3166 3169 3170 3170 3171 3173 3173 3173 3175 3177 3178 3179 3181 3182 3184 3186 3189 3191 3193 3195 3197 3198 3199 3201 3202 3204 3205 3206 3206 3207 3206 3206 3205 3205 3205 3206 3205 3205 3204 3202 3200 3198 3196 3195 3196
3149 3153 3156 3158 3162 3163 3166 3162 3163 3167 3168 3168 3169 3171 3173 3174 3176 3178 3178 3180 3183 3187 3189 3191 3192 3194 3196 3198 3200 3202 3203 3204 3206 3206 3206 3206 3205 3205 3205 3204 3204 3203 3202 3201 3199 3197 3194 3193 3192
3145 3151 3154 3155 3157 3160 3160 3164 3158 3161 3163 3164 3163 3165 3168 3170 3171 3173 3175 3176 3179 3182 3184 3188 3189 3191 3193 3195 3197 3199 3201 3203 3205 3205 3205 3205 3205 3205 3204 3204 3204 3202 3201 3200 3198 3196 3193 3192 3190
3145 3149 3150 3151 3152 3149 3151 3156 3153 3155 3158 3160 3162 3162 3163 3165 3168 3170 3172 3174 3175 3178 3180 3184 3186 3188 3190 3193 3195 3197 3199 3201 3203 3203 3203 3204 3204 3204 3203 3202 3201 3200 3200 3199 3197 3194 3193 3191 3189
3138 3143 3143 3144 3141 3138 3143 3149 3149 3150 3154 3156 3158 3159 3159 3161 3163 3166 3167 3168 3171 3174 3177 3180 3182 3185 3187 3189 3192 3195 3197 3198 3200 3201 3201 3202 3202 3202 3201 3200 3200 3198 3197 3196 3194 3192 3191 3189 3187
3126 3130 3128 3130 3131 3135 3140 3138 3141 3148 3151 3152 3153 3155 3156 3155 3157 3159 3162 3164 3167 3170 3174 3177 3179 3182 3184 3186 3189 3192 3193 3195 3196 3197 3198 3199 3199 3198 3197 3197 3196 3196 3194 3193 3191 3189 3188 3186 3184
3118 3119 3128 3126 3127 3127 3129 3136 3142 3143 3144 3146 3147 3149 3149 3151 3152 3154 3156 3159 3162 3165 3168 3172 3176 3178 3180 3183 3185 3187 3189 3190 3191 3193 3194 3195 3195 3194 3193 3194 3193 3192 3191 3190 3188 3186 3184 3182 3180
3108 3118 3122 3119 3115 3117 3123 3125 3128 3135 3137 3140 3142 3143 3145 3146 3146 3148 3150 3152 3156 3160 3164 3168 3171 3174 3177 3178 3180 3183 3185 3186 3187 3189 3189 3189 3190 3190 3189 3189 3189 3188 3186 3186 3184 3183 3181 3179 3177
3102 3104 3109 3116 3114 3110 3116 3117 3125 3130 3132 3134 3137 3139 3141 3142 3142 3143 3145 3147 3150 3154 3159 3162 3165 3168 3171 3174 3177 3179 3180 3181 3182 3183 3184 3185 3185 3185 3183 3181 3184 3184 3181 3181 3180 3179 3177 3175 3174
3095 3099 3103 3103 3107 3107 3110 3109 3118 3122 3127 3129 3132 3134 3135 3136 3136 3137 3136 3139 3143 3146 3151 3155 3160 3162 3166 3170 3172 3174 3174 3175 3177 3177 3179 3177 3178 3178 3177 3178 3175 3174 3175 3174 3174 3173 3172 3170 3169